NOAA 16 DEB, 41366

Orbit data source: Space-Track

NOAA 16 DEB, 41366 is space debris in SSO originally from a launch on Thu, 21 Sep 2000 UTC launched from the Air Force Western Test Range (AFWTR). Debris objects in space refer to the collection of defunct objects orbiting the Earth. Examples of debris include non-operational satellites, rocket bodies, and fragments generated from explosions, collisions, or faulty payload assembly.

Loading next visibility...
Identifier
41366, 2000-055JK
Orbit
SSO
Country
Flag of USUS
Related business
Manufacturer
Unknown
Mission
Spacecraft
Bus & Motor
Unknown
Mass
Unknown
Launch date (UTC)
2000-09-21 (26 years ago)
Launch vehicle
Unknown
Launch site
Air Force Western Test Range (AFWTR)
Object type
Payload
Rocket body
Debris
Shape & HBR
Unknown shape, 0.1 m
Radar Cross Section
Small (<0.1 m²)

Expand to show TLE details & history
Last TLE update: 15 hours ago

TLE from 15 hours ago
0 NOAA 16 DEB
1 41366U 00055JK  26206.58791196  .00010874  00000-0  32897-2 0  9993
2 41366  98.9388 326.1695 0028896 132.9891 227.3727 14.42267649539434
Epoch: 2026-07-25T14:06Z
TLE epoch observation values (Epoch: 2026-07-25T14:06:35.593Z)
Latitude
0.00008°
Longitude
171.22314°
Altitude
767.94 km
Speed
7.463 km/s
True Right ascension
21h 44m 40s
True Declination
0° 00' 00"
Sunlit
Object was in full shadow at epoch
Visualization orbit readout
Latitude
Unknown
Longitude
Unknown
Altitude
Unknown
Speed
Unknown
Apparent Right ascension
Unknown
Apparent Declination
Unknown
Sunlit
N/A
Visualization observer readout
Local Sidereal Time
18:51:37
Azimuth
Unknown
Elevation
Unknown
Doppler factor
Unknown
Orbital elements
Apogee altitude
768.748 km
Perigee altitude
727.564 km
Semi-major axis
7,126.293 km
Eccentricity
0.00289
Inclination
98.9388°
RAAN
326.1695°
Arg. of periapsis
132.9891°
True anomaly
227.12966°
Mean anomaly
227.3727°
Eccentric anomaly
227.25112°
Mean motion
3.60784 °/min
Orbital period
99.78 mins
BSTAR
0.0032897
Loading maneuver chart data...
Computing Atmospheric mass density...

Documentation

Showing up to 5 results
|